Wind_Speed
5 5 4 3 2 2 2 2 2 2 2 3 3 3 4 4 5 5 5 5 5 5 6 6 7 7 8 9 9 10 10 9 9 9 10 10 10 10 10 10 10 10 10 9 9 9 9 9 9 9 8 8 8 8 7 7 7 8 10 10 10 10 10 11 11 11 11 11 11
5 5 4 3 3 2 2 2 2 2 2 3 3 3 4 4 5 5 5 5 5 5 6 6 7 8 8 9 9 9 9 9 9 9 10 10 10 10 10 10 10 10 9 9 8 9 9 9 9 9 9 9 9 9 8 8 8 10 11 11 11 10 11 11 11 11 12 12 12
5 5 4 4 3 3 2 2 2 3 3 3 3 4 4 4 5 5 5 5 5 5 6 6 7 7 8 9 9 9 9 9 10 10 10 10 10 10 10 10 10 9 8 8 8 8 9 9 9 9 9 9 9 9 10 10 10 11 11 11 11 10 10 11 11 12 12 12 12
5 5 5 4 4 3 3 2 3 3 3 3 3 4 4 5 5 5 5 6 6 6 6 6 7 7 8 9 9 9 9 9 10 10 10 10 10 10 10 10 9 9 8 8 8 8 9 9 9 9 9 9 10 10 10 11 11 11 11 11 11 11 11 11 11 12 12 13 13
5 5 4 4 3 3 3 3 3 3 3 3 3 4 5 5 5 5 6 6 6 6 6 6 6 7 8 9 9 9 9 9 10 10 10 10 10 10 10 9 9 9 9 9 8 8 9 9 9 9 9 10 10 10 10 10 11 11 11 11 11 11 11 11 12 12 12 13 14
5 5 4 4 3 3 3 3 3 3 3 3 3 4 5 5 6 6 6 6 6 6 6 6 6 7 8 9 9 9 9 9 9 10 10 10 9 9 10 10 9 9 9 9 9 9 9 9 9 9 9 9 10 10 10 10 11 11 12 12 12 11 12 12 13 13 14 14 15
5 5 4 4 3 3 3 3 3 3 3 2 3 4 4 5 6 6 6 6 6 6 6 6 6 7 8 9 9 9 9 9 9 10 10 10 10 10 10 10 10 10 9 9 9 9 9 9 9 8 8 8 8 8 9 9 10 11 12 12 12 12 12 13 13 14 15 16 17
5 4 4 4 3 3 3 3 3 3 3 3 3 3 4 4 5 6 6 6 6 6 6 6 7 7 8 8 9 9 9 9 9 9 10 10 10 10 10 10 10 10 9 9 8 8 9 9 8 8 9 9 9 9 9 10 11 12 13 14 14 14 14 15 15 15 16 18 19
4 4 4 3 3 3 3 2 2 2 2 3 3 3 3 4 4 5 6 6 6 7 7 7 7 8 8 8 8 8 8 9 9 9 10 10 10 10 10 10 10 10 9 8 9 9 9 10 9 10 10 10 11 11 12 12 13 13 14 15 15 15 16 16 17 18 19 19 20
4 3 3 3 3 3 3 2 2 2 2 3 3 3 3 3 4 4 5 6 7 7 7 7 7 7 8 8 8 8 8 8 9 9 10 10 10 10 10 10 10 10 10 10 10 10 10 10 10 10 11 11 12 12 13 13 13 14 14 15 16 17 17 18 19 19 20 20 21
3 3 3 3 3 3 3 2 2 2 3 3 4 4 4 4 4 4 5 6 7 7 7 7 7 7 8 8 8 8 8 8 9 9 10 10 11 10 10 10 10 10 11 10 10 10 10 10 11 11 11 11 12 12 13 13 14 14 15 16 17 18 19 19 20 20 20 21 21
3 2 2 2 3 3 3 3 3 3 3 3 4 4 4 4 4 4 5 6 7 7 7 7 7 7 8 7 8 8 8 9 9 10 10 11 11 10 10 10 10 10 10 10 10 10 10 10 11 11 12 11 11 12 13 14 15 15 16 17 18 19 19 20 20 21 21 21 22
2 2 2 2 2 2 3 3 3 3 3 4 4 4 5 4 4 4 5 6 7 7 7 7 7 7 8 8 8 8 9 9 10 10 11 11 10 10 10 10 10 10 10 10 10 10 10 10 11 11 11 11 11 12 13 14 15 16 17 18 19 19 20 20 21 21 21 21 21
2 1 1 1 1 2 2 3 3 3 3 4 4 4 5 4 4 4 5 6 7 7 7 7 7 7 8 8 8 9 9 10 10 11 11 11 10 10 10 10 10 10 10 9 9 9 10 10 10 10 11 11 12 13 14 15 16 17 17 18 19 19 20 21 21 21 21 21 21
1 0 0 1 1 1 2 3 3 3 4 4 4 4 5 4 4 4 5 6 6 6 7 7 7 8 8 8 9 9 9 10 10 11 11 11 10 10 10 10 10 9 9 9 9 9 10 10 10 10 11 12 13 15 16 16 17 18 18 18 19 20 20 21 21 21 21 21 21
1 1 1 1 1 1 2 3 3 4 4 4 5 5 4 4 4 5 5 5 6 6 7 7 8 8 8 8 9 9 10 10 10 11 11 11 10 10 10 10 10 9 9 9 9 10 10 10 9 10 11 12 14 15 16 17 18 18 19 19 19 20 20 21 21 21 20 20 21
2 2 2 2 2 2 2 3 4 4 4 5 5 5 4 4 5 5 5 5 6 6 7 7 8 8 8 8 9 9 10 10 10 11 11 11 10 10 10 10 10 9 9 9 10 10 10 10 9 9 11 12 14 16 17 18 18 19 19 19 19 20 20 20 20 20 20 21 21
3 3 3 3 3 3 3 3 4 4 5 5 5 5 5 5 5 5 5 5 6 6 7 8 8 8 8 9 9 9 10 10 10 11 11 11 10 10 10 10 10 10 10 10 10 10 10 9 9 10 11 13 15 16 18 19 19 19 20 20 20 20 20 20 20 20 20 21 21
3 3 3 4 4 4 4 4 4 5 5 5 5 5 5 5 5 5 6 6 6 6 7 8 8 8 8 9 9 10 10 10 11 11 11 11 10 10 10 10 10 10 10 10 10 9 8 8 9 10 13 15 17 18 19 19 20 20 20 20 20 20 21 21 20 20 20 21 21
4 4 4 4 5 5 5 5 5 5 5 5 5 5 5 5 5 6 6 6 6 6 7 8 8 9 9 9 10 10 10 10 10 11 11 10 10 10 10 10 10 10 10 10 9 8 7 7 9 11 14 16 18 19 20 20 20 20 20 20 21 21 21 21 20 20 20 21 21
5 5 5 5 6 6 5 5 6 6 6 5 5 5 6 6 6 6 6 6 6 7 7 8 9 9 9 10 10 10 10 10 10 10 10 10 10 9 9 9 10 10 10 10 9 7 6 7 10 12 15 17 19 19 20 20 20 20 21 21 21 21 21 20 20 20 20 20 20
5 5 6 6 6 6 6 6 6 6 6 6 6 6 6 6 6 6 6 6 6 7 7 8 9 9 10 10 10 10 10 10 10 10 10 10 9 9 9 9 10 10 10 9 8 6 6 8 11 13 16 18 19 19 19 20 20 20 21 21 21 21 21 20 20 20 20 20 20
6 6 6 7 7 7 6 6 6 6 6 6 7 7 7 7 7 7 7 7 7 7 8 9 9 10 10 10 10 10 10 10 10 9 9 9 9 9 9 9 9 10 9 8 6 6 7 9 11 14 16 17 19 19 19 20 20 20 21 21 21 21 21 20 20 20 20 20 19
7 7 7 7 7 7 7 7 7 7 7 7 7 7 7 7 7 7 7 7 7 7 8 9 10 10 10 10 10 10 10 10 9 9 9 9 9 9 9 9 9 9 8 5 5 7 9 11 12 13 15 17 18 19 19 19 19 20 20 21 21 21 20 20 20 20 19 19 19
8 8 8 7 7 7 7 7 7 7 7 8 8 8 8 8 8 7 7 7 7 8 9 10 10 10 10 10 10 10 10 9 9 9 8 8 8 8 8 9 9 9 7 5 6 9 11 12 14 14 15 16 17 18 19 19 19 19 20 20 20 20 20 20 19 19 19 19 19
9 8 8 8 8 8 8 7 7 8 8 8 8 8 8 8 8 8 7 8 9 9 10 11 10 9 9 9 10 10 10 9 8 8 8 8 8 8 8 9 9 8 6 6 8 9 11 13 15 16 16 16 16 17 18 19 19 19 20 20 20 19 19 19 19 19 19 19 19
9 9 9 9 8 8 8 8 8 8 8 8 8 8 8 8 8 8 8 9 10 10 11 10 10 9 9 9 10 10 10 9 8 8 8 8 8 8 8 9 10 8 5 6 8 9 11 13 16 17 18 17 16 17 18 18 19 19 19 19 19 18 18 19 19 19 19 19 19
9 9 9 9 9 9 9 8 9 9 9 9 8 9 9 8 8 9 9 10 11 11 10 9 9 9 9 9 10 10 10 9 8 8 8 7 7 7 8 9 10 9 7 7 7 9 11 13 16 18 19 18 17 16 17 18 18 19 18 18 18 18 18 18 19 19 19 19 19
10 10 10 10 10 9 9 9 9 9 9 9 9 8 9 9 9 10 11 11 11 10 10 9 9 9 9 9 10 10 10 9 8 8 7 7 7 7 8 9 10 9 7 7 8 10 12 14 16 18 19 20 18 16 16 17 17 18 18 17 17 18 18 18 19 19 19 18 18
10 10 10 10 10 10 10 10 10 9 9 9 8 8 9 9 10 11 11 11 11 10 9 9 9 9 10 10 10 10 9 9 8 7 7 7 7 8 9 10 11 9 8 8 10 11 13 14 16 18 20 20 20 18 16 16 17 17 17 17 17 18 18 18 19 18 18 18 18
10 10 10 11 10 10 10 10 10 9 9 8 8 9 10 11 11 11 11 11 11 10 9 9 10 10 10 10 9 9 9 8 8 7 7 7 7 8 9 10 11 9 8 10 11 12 13 14 17 19 20 21 20 18 16 16 16 17 17 17 17 18 18 18 18 17 17 18 18
11 11 11 11 11 11 11 10 10 9 8 9 10 11 11 11 11 11 11 11 11 10 10 10 10 10 10 9 9 8 8 8 7 7 7 7 8 8 9 10 10 8 7 9 9 10 12 15 17 19 20 20 20 19 17 16 16 16 16 16 17 17 17 16 16 16 17 17 17
11 11 12 12 11 11 11 10 10 9 9 10 11 12 12 11 11 11 11 11 11 10 10 10 10 10 9 9 8 8 7 7 7 7 7 7 8 8 9 10 9 7 6 7 9 11 14 16 18 19 20 20 20 17 15 15 15 15 15 16 16 16 16 16 16 16 16 16 16
12 12 12 12 12 11 11 11 10 10 11 12 12 12 12 11 11 12 11 11 10 10 10 10 10 10 9 8 7 7 7 7 6 7 7 7 8 8 9 10 8 7 7 10 12 14 16 17 19 19 20 20 18 15 14 14 15 15 15 15 15 15 15 15 15 15 15 15 14
12 12 13 12 12 12 11 11 11 12 12 13 12 12 12 11 12 12 12 11 11 10 10 10 10 9 9 8 7 7 7 6 7 7 7 7 7 7 8 9 8 9 11 13 14 16 17 17 18 19 19 18 16 14 13 14 14 14 14 15 15 15 15 15 15 15 14 14 13
12 12 12 12 12 12 12 12 13 13 13 13 12 12 12 12 12 12 12 11 11 11 11 11 10 10 9 8 7 7 6 7 7 7 6 6 7 7 8 9 8 10 12 13 14 15 16 17 17 18 18 17 14 13 13 13 13 13 14 14 15 15 15 15 15 14 14 13 13
12 12 12 12 12 12 13 13 13 13 13 13 12 12 12 12 12 12 11 11 11 11 11 10 10 10 9 8 7 7 7 7 7 7 7 6 7 7 8 8 9 9 10 12 13 14 15 16 17 18 18 15 13 12 12 12 12 13 13 14 14 15 15 15 15 14 14 13 13
12 12 11 11 12 13 13 14 14 14 13 13 12 12 12 12 12 12 11 11 11 11 11 10 10 10 9 8 7 7 7 8 8 7 7 7 7 7 7 8 10 10 10 12 13 13 14 15 16 17 17 14 12 12 12 12 12 13 13 14 14 14 15 15 15 14 14 14 13
11 10 11 12 13 13 14 14 14 14 13 13 12 12 12 12 12 11 11 10 10 11 11 11 10 10 9 8 7 7 8 8 8 7 7 7 7 7 7 8 10 10 10 12 13 13 14 14 16 16 16 14 11 11 11 11 12 13 13 13 14 15 15 15 15 14 14 14 14
9 9 11 12 13 14 14 14 14 14 13 12 12 12 12 12 12 11 11 11 11 11 11 11 10 10 9 8 8 8 8 8 8 7 7 7 7 7 7 8 9 10 10 11 11 12 12 13 15 15 15 13 11 10 10 11 12 12 13 13 14 15 15 15 15 14 14 14 14
9 10 11 12 13 14 14 14 14 13 13 12 12 12 12 12 11 11 11 11 11 11 11 11 10 9 9 8 8 8 8 8 7 7 7 7 7 8 7 8 8 9 9 9 9 10 12 13 14 15 14 12 10 10 10 10 11 12 12 13 14 15 15 15 15 15 14 14 14
Wind_Direction
91 88 85 77 69 63 61 55 37 18 9 8 5 3 1 359 354 349 344 339 334 330 328 327 327 327 328 330 330 329 328 328 328 328 325 321 319 320 323 324 324 323 321 321 320 320 321 322 320 316 311 306 302 300 297 293 295 297 299 298 298 298 298 298 296 295 295 295 295
90 89 89 86 78 66 54 43 29 18 12 12 9 5 3 360 354 347 341 335 330 328 326 327 328 328 330 331 331 330 329 328 328 327 324 322 322 325 327 328 327 324 323 323 323 323 323 322 319 314 309 303 300 299 297 293 291 293 296 298 300 301 302 302 302 302 302 302 302
92 87 83 78 72 64 53 39 24 18 16 15 13 9 4 359 351 343 336 331 327 326 327 328 329 330 331 332 331 330 329 328 327 326 324 324 325 328 329 328 326 324 323 322 321 319 318 316 311 306 299 296 294 295 296 296 296 298 300 304 306 308 310 310 311 312 312 311 311
97 91 84 77 72 67 60 45 29 22 19 17 14 11 5 357 349 340 333 327 325 327 329 329 329 330 331 331 331 330 328 328 327 326 325 326 328 329 329 327 324 321 319 315 311 307 305 303 300 296 293 292 292 294 297 302 306 309 311 311 313 314 315 316 317 317 316 315 314
102 97 93 87 79 73 65 52 38 27 24 20 17 11 4 356 346 338 331 327 326 326 327 326 327 329 330 330 329 329 328 328 328 327 327 328 329 328 327 325 321 317 312 308 303 300 299 299 299 299 300 301 302 304 309 315 318 320 320 319 319 318 317 317 318 317 316 314 313
104 102 98 91 82 74 66 56 44 35 28 22 16 10 2 354 345 336 330 326 324 324 324 324 325 327 329 330 329 329 329 329 329 328 328 328 328 327 326 323 319 315 310 307 304 304 305 307 308 309 311 313 314 316 321 325 326 325 322 321 318 317 317 317 318 317 314 312 311
108 104 97 87 77 70 64 58 48 37 27 17 10 5 359 349 341 333 328 324 323 323 322 322 325 328 330 330 329 329 329 329 329 328 327 326 325 325 324 321 318 316 314 313 313 313 314 315 314 314 316 317 318 321 327 330 328 324 320 317 315 316 316 317 317 315 313 311 311
113 104 92 81 69 63 60 58 50 36 21 8 358 352 346 339 333 329 326 325 324 323 321 321 325 328 329 328 327 328 328 328 328 327 325 324 323 323 322 320 319 319 320 320 318 318 317 316 315 314 316 317 317 320 324 326 324 321 317 314 314 314 315 314 314 312 311 310 310
114 100 85 72 61 55 54 57 51 35 15 356 344 335 327 320 321 324 326 327 325 322 319 320 323 325 326 325 325 326 327 327 326 325 325 324 323 321 320 319 318 319 319 318 317 315 315 315 314 314 315 315 315 316 320 323 322 319 316 314 313 313 313 312 311 310 309 310 309
109 93 77 63 53 48 46 45 41 25 5 348 338 327 316 307 312 321 326 326 323 321 319 320 322 323 322 322 322 324 325 325 325 325 324 323 320 319 318 317 316 315 315 316 316 317 317 317 317 317 317 317 316 317 319 320 318 316 313 312 311 310 309 308 309 309 309 309 308
105 89 71 56 48 42 37 30 21 8 354 345 337 329 319 310 314 321 326 324 321 320 321 321 321 320 319 319 321 322 323 324 324 324 322 319 317 317 317 316 315 314 315 317 320 321 320 318 317 317 317 318 318 317 316 315 313 311 310 309 308 308 308 308 309 309 309 307 306
105 88 69 55 46 38 30 21 10 358 350 343 337 331 324 318 318 322 325 324 322 321 321 322 320 318 318 318 319 321 322 322 323 321 318 315 314 315 315 315 315 315 317 321 324 323 319 317 315 314 315 316 318 317 315 313 311 310 309 308 308 308 308 309 309 309 308 307 306
109 89 65 51 42 34 24 13 3 353 345 340 335 330 325 319 318 321 324 325 323 321 320 320 319 318 318 318 319 320 321 321 319 316 313 311 311 313 313 314 315 318 320 323 324 321 317 315 314 313 314 316 316 316 315 313 312 311 310 310 310 310 310 310 310 309 307 306 306
120 95 64 44 35 27 16 7 358 349 341 337 333 329 324 319 318 319 321 323 321 318 318 319 319 319 318 318 319 319 319 317 314 311 309 308 309 310 312 313 316 318 320 321 320 318 315 313 313 314 315 316 316 315 315 314 313 312 312 312 312 311 311 310 309 309 308 307 306
153 133 61 16 14 12 8 1 354 346 339 335 332 328 323 319 318 317 317 316 315 315 316 318 319 318 318 318 318 318 316 313 310 308 307 308 310 311 312 314 315 316 316 317 316 314 312 312 313 315 316 317 317 317 316 315 314 313 313 312 312 311 310 310 309 309 308 307 306
211 231 261 287 312 338 351 352 348 342 337 334 330 325 321 319 318 314 310 308 308 311 315 317 317 317 317 318 317 316 314 311 308 307 308 309 311 312 313 313 312 312 312 312 312 310 310 310 313 316 318 319 319 319 318 317 316 314 313 312 311 310 310 309 309 309 308 307 307
233 248 263 278 293 310 328 338 338 334 331 329 325 322 320 318 316 311 305 301 303 307 312 314 314 314 315 316 316 314 312 310 309 308 309 310 311 311 310 310 309 309 310 310 310 309 309 311 314 319 321 322 322 321 319 318 316 314 312 310 310 309 309 309 309 309 309 308 308
245 257 269 280 290 300 311 320 324 324 324 322 320 319 318 316 312 306 301 298 298 302 306 309 310 311 311 312 312 311 310 309 309 308 308 308 308 308 307 307 308 308 309 309 309 308 309 313 318 323 326 326 325 322 320 317 314 312 311 310 310 309 308 308 309 309 310 309 309
254 265 274 283 290 297 302 307 312 314 315 314 314 314 314 311 306 300 297 296 297 299 303 305 307 308 308 309 308 308 308 308 308 307 307 305 305 305 305 306 308 307 307 307 306 305 306 312 320 326 328 328 326 323 319 317 314 313 312 311 310 309 308 308 309 309 309 309 309
257 267 276 283 288 292 296 299 304 307 308 307 308 309 310 308 302 296 293 294 296 298 300 304 306 306 307 307 307 307 307 307 307 307 306 304 302 302 304 306 307 306 305 304 302 301 304 312 323 329 330 329 326 322 319 317 316 314 314 312 311 309 309 308 308 308 309 308 308
253 264 273 279 281 284 289 294 298 301 302 303 304 306 306 302 296 291 290 291 293 296 299 303 305 306 306 306 306 307 307 307 307 306 304 302 300 300 302 304 304 303 303 303 301 303 310 321 328 331 331 329 325 322 320 319 317 316 315 313 311 310 309 308 308 308 308 308 308
252 260 268 272 274 277 282 287 291 295 298 301 304 304 301 297 292 289 287 287 290 295 300 304 305 304 303 304 306 307 307 306 305 304 303 301 299 299 300 301 302 302 303 305 306 314 326 331 331 332 330 327 324 322 321 320 319 317 315 313 312 310 309 309 308 308 308 308 308
252 258 264 268 271 274 278 282 286 291 297 303 305 304 300 294 289 287 286 287 290 296 301 303 302 301 301 302 304 304 304 304 303 303 302 301 299 298 299 300 301 305 309 313 318 322 323 325 328 329 328 326 323 322 321 320 318 316 315 313 312 311 310 309 309 308 308 308 309
251 255 261 266 270 274 277 281 285 291 298 304 305 303 299 293 290 287 287 288 292 296 298 298 297 297 299 301 302 301 301 301 302 302 302 301 299 299 299 301 304 310 317 322 306 302 308 317 325 328 327 325 323 322 320 318 317 315 314 313 312 311 310 309 309 309 309 310 311
250 253 258 263 269 273 278 281 286 292 298 302 302 301 297 294 291 289 288 290 291 293 292 292 293 295 297 299 298 297 297 297 299 301 301 300 298 299 300 302 307 312 313 301 294 298 304 312 320 326 328 326 323 321 319 317 315 314 313 311 311 310 309 309 309 310 311 312 314
250 252 257 262 267 272 276 281 286 292 296 298 299 297 296 294 292 290 289 289 289 288 289 290 293 295 296 294 294 295 295 296 297 298 297 297 297 299 302 305 310 312 306 290 291 298 305 311 317 323 326 327 323 320 318 316 314 313 312 310 310 309 309 309 310 312 314 316 317
249 252 258 264 268 271 275 280 286 291 294 296 296 297 295 294 291 289 287 285 285 286 288 290 293 294 293 292 293 295 297 298 297 295 293 293 295 299 303 307 313 311 296 278 288 299 308 315 319 323 326 327 323 320 317 315 313 312 311 310 309 309 309 310 312 314 317 318 319
250 255 260 265 268 271 275 281 287 291 293 295 296 296 295 292 289 285 284 283 284 286 288 290 292 293 293 294 296 298 300 299 295 291 288 288 291 297 303 308 313 309 295 283 295 306 312 316 320 323 326 326 324 320 316 313 312 311 311 310 309 310 311 313 315 317 319 320 321
253 257 261 264 267 271 276 281 287 290 293 294 295 295 293 290 285 283 283 284 285 287 289 291 292 293 293 295 297 299 299 297 294 289 285 286 290 297 304 308 309 309 306 303 307 309 312 314 319 323 326 327 325 320 315 312 311 311 310 310 310 312 314 316 317 319 320 321 322
256 258 261 263 267 271 275 280 285 289 291 293 295 295 293 289 285 284 284 285 286 288 289 291 292 291 291 293 295 297 298 298 295 291 288 289 294 299 304 306 306 304 302 304 305 306 309 314 320 325 326 326 325 320 314 311 309 309 310 310 311 314 316 318 319 320 321 322 322
257 259 261 263 266 270 273 278 283 286 288 290 293 293 291 289 287 286 285 287 287 287 288 289 289 289 288 290 293 296 299 300 299 296 294 294 297 299 302 304 306 299 290 294 297 302 310 318 324 326 326 326 325 321 315 309 308 308 309 311 313 316 318 320 320 321 322 322 322
258 259 261 263 266 269 272 276 279 281 283 286 288 289 289 288 287 286 286 286 286 286 287 288 288 288 287 288 291 295 299 302 301 299 297 297 297 299 302 304 311 297 275 284 296 309 318 324 326 326 326 325 325 322 316 309 309 309 310 312 315 317 319 320 321 321 322 322 322
259 260 261 262 265 268 271 274 276 277 279 281 283 285 286 287 287 286 285 284 283 283 285 287 288 287 286 287 290 294 298 300 300 298 297 296 297 300 302 304 313 306 292 305 316 322 324 325 325 325 325 325 327 323 315 312 311 311 313 314 316 318 319 320 320 320 321 321 321
259 260 260 262 264 267 270 272 273 274 276 278 280 282 284 286 286 285 283 282 280 280 282 284 285 284 283 284 286 290 293 294 293 293 292 293 296 301 303 304 310 319 326 327 326 324 323 322 323 323 325 328 328 322 315 314 313 313 314 315 316 317 318 319 319 319 319 319 319
261 260 260 261 263 266 268 270 272 273 275 277 279 282 283 284 284 283 282 281 278 278 279 280 280 279 278 278 279 283 287 289 287 286 287 290 295 299 301 301 304 315 323 324 321 319 318 318 320 323 327 330 327 321 316 315 315 315 315 316 316 317 318 319 319 319 318 318 318
263 261 260 260 262 264 266 269 272 274 276 277 279 281 283 283 283 282 280 278 275 275 275 277 277 276 275 274 274 278 284 288 288 286 284 286 291 295 298 301 302 312 318 318 314 312 313 315 319 324 328 331 327 321 317 316 315 315 316 316 316 317 319 319 319 319 318 317 317
265 263 260 260 260 262 266 269 272 274 276 277 279 281 283 283 283 281 278 274 272 272 273 276 277 276 275 274 275 280 286 291 290 287 283 282 285 290 296 301 305 311 313 309 307 307 310 313 317 323 328 331 326 320 318 317 316 316 316 317 317 319 320 320 320 319 318 317 316
266 264 261 259 260 263 266 269 270 272 274 276 278 280 281 282 281 279 275 271 270 271 273 276 277 277 276 276 278 282 287 289 287 283 279 277 279 285 292 300 305 306 305 301 302 303 307 311 316 322 328 331 325 320 319 317 316 316 316 317 318 320 322 322 321 320 319 318 317
267 264 262 262 263 265 267 268 269 270 272 274 276 278 280 280 279 277 273 270 269 271 273 274 275 276 277 277 278 280 283 284 283 280 277 276 276 278 285 295 300 302 300 297 298 300 304 310 316 322 328 332 325 319 317 315 315 315 316 318 320 322 323 323 322 320 319 318 318
268 265 264 265 266 267 268 269 270 271 272 274 276 278 279 279 277 275 272 270 269 269 270 271 272 273 275 275 276 277 279 281 281 281 281 279 278 276 279 286 293 296 296 295 297 300 305 311 317 323 329 332 326 319 316 314 314 315 318 321 323 324 323 322 322 320 319 319 320
268 266 267 267 267 267 268 269 270 271 272 274 276 277 278 277 274 272 269 268 267 266 266 267 269 271 273 273 273 274 274 275 278 284 288 286 282 279 278 280 287 292 294 296 298 300 304 310 317 323 329 332 329 321 316 314 315 317 320 323 324 324 322 321 321 321 320 321 322
Height
858 858 858 858 858 858 858 858 858 857 857 857 856 856 856 855 855 854 854 854 854 853 853 853 853 852 852 851 851 850 850 849 849 848 848 848 847 846 846 846 845 845 845 845 844 844 843 843 843 842 842 842 841 841 841 841 841 840 839 838 838 837 837 836 835 835 834 834 833
857 857 857 857 857 857 857 857 857 857 857 856 856 856 855 855 855 854 854 854 853 853 853 853 853 852 851 851 850 850 849 849 848 848 848 847 846 846 846 845 845 845 845 844 844 844 843 843 843 842 842 841 841 841 840 840 840 839 838 838 837 837 836 835 835 834 834 833 833
856 856 856 857 857 857 857 857 856 856 856 856 856 855 855 855 854 854 854 853 853 853 853 853 852 852 851 850 850 849 849 848 848 847 847 846 846 846 845 845 845 845 844 844 844 844 843 843 843 842 841 841 840 840 839 839 839 838 838 837 837 836 836 835 834 834 833 833 832
856 856 856 856 856 856 856 856 856 856 856 855 855 855 855 854 854 854 854 853 853 853 853 852 852 851 851 850 849 849 848 848 848 847 846 846 845 845 845 845 845 844 844 844 843 843 843 843 842 841 841 840 839 839 839 838 838 838 837 837 836 836 835 835 834 833 833 833 832
855 855 855 855 855 855 855 855 855 855 855 855 855 855 854 854 854 854 853 853 853 852 852 852 851 851 850 850 849 848 848 848 847 847 846 846 845 845 845 845 844 844 843 843 843 842 842 842 841 841 840 840 839 839 838 838 838 837 837 837 836 835 835 834 834 833 833 832 832
855 855 855 855 855 855 855 855 855 855 854 854 854 854 854 854 854 853 853 853 852 852 852 851 851 850 850 849 849 848 848 847 847 846 846 845 845 845 844 844 843 843 843 842 842 842 841 841 841 840 840 839 839 839 838 838 838 837 837 836 836 835 834 834 833 833 832 832 831
854 854 854 854 854 854 854 854 854 854 854 854 854 854 854 854 854 853 853 853 852 852 851 851 850 850 849 849 848 848 847 847 846 846 846 845 845 844 844 844 843 843 842 842 842 841 841 841 840 840 839 839 839 838 838 838 837 837 836 836 835 834 834 833 833 832 832 831 830
854 854 854 854 853 853 853 853 853 853 853 853 853 853 853 853 853 853 853 852 852 851 851 850 849 849 849 848 848 847 847 846 846 846 845 845 844 844 844 843 843 842 842 842 841 841 840 840 840 839 839 838 838 838 837 837 837 836 836 835 835 834 833 833 832 832 831 830 830
853 853 853 853 853 853 853 852 852 852 853 853 853 853 853 853 853 852 852 851 851 851 850 849 849 848 848 848 847 847 846 846 846 845 845 844 844 843 843 843 842 842 841 841 841 840 840 839 839 838 838 838 838 837 837 837 836 836 835 835 834 834 833 833 832 831 830 829 829
853 853 853 853 852 852 852 852 852 852 852 852 852 852 852 852 852 852 851 851 851 850 849 849 848 848 848 847 847 846 846 846 845 845 844 844 843 843 843 842 842 841 841 840 840 839 839 839 838 838 838 838 837 837 837 836 836 836 835 835 834 833 833 832 831 830 830 829 828
852 852 852 852 852 851 851 851 851 851 851 851 851 851 851 851 851 851 851 850 850 849 849 848 848 848 847 847 846 846 845 845 845 844 844 843 843 843 842 842 841 841 840 840 839 839 839 838 838 838 838 837 837 837 836 836 836 835 834 834 833 833 832 831 830 830 829 828 827
851 851 852 851 851 851 850 850 850 850 850 850 850 850 850 850 850 850 850 850 849 849 848 848 848 847 847 846 846 845 845 845 844 844 843 843 842 842 841 841 841 840 840 839 839 839 839 838 838 838 837 837 837 836 836 835 835 834 834 833 833 832 831 830 829 829 828 827 826
851 851 851 851 850 850 850 850 850 850 850 850 850 850 849 849 849 849 849 849 849 848 848 848 847 847 846 846 845 845 844 844 844 843 843 842 842 841 841 840 840 839 839 839 839 839 839 838 838 838 837 837 836 836 835 835 834 833 833 832 831 831 830 829 828 828 827 826 825
851 851 851 850 850 850 849 849 849 849 849 849 849 849 849 849 849 849 849 849 848 848 848 847 847 846 845 845 845 844 844 843 843 843 842 841 841 840 840 839 839 839 839 839 839 839 839 838 838 838 837 837 836 835 835 834 833 833 832 831 831 830 829 828 828 827 826 825 824
851 850 850 850 850 849 849 849 848 848 848 848 848 848 848 848 848 848 848 848 848 848 847 847 846 846 845 845 844 844 843 843 843 842 841 840 840 839 839 839 839 838 838 838 838 838 838 838 837 837 837 836 836 835 834 833 833 832 831 831 830 829 828 828 827 826 825 824 823
850 850 850 850 849 849 848 848 848 848 848 848 848 848 848 847 847 848 848 848 848 847 847 846 846 845 844 844 844 843 843 842 842 841 840 840 839 839 838 838 838 838 838 838 838 838 838 837 837 836 836 836 835 834 834 833 832 832 831 830 829 828 828 827 826 825 824 823 822
850 850 850 849 849 849 848 848 848 848 848 847 847 847 847 847 847 847 847 847 847 846 846 846 845 844 844 843 843 843 842 842 841 840 840 839 839 838 838 838 838 837 837 837 837 837 837 836 836 836 836 835 835 834 833 833 832 831 830 829 828 828 827 826 825 824 823 822 821
849 849 849 849 849 848 848 848 848 847 847 847 847 846 846 846 846 846 846 846 846 846 845 845 844 844 843 843 843 842 842 841 840 840 839 839 838 838 838 837 837 837 837 836 836 836 836 836 836 835 835 835 834 833 833 832 831 830 829 828 827 826 826 825 824 823 822 821 820
848 849 849 849 848 848 848 848 847 847 847 846 846 846 846 845 846 846 846 845 845 845 845 844 844 843 843 843 842 842 841 840 840 839 839 838 838 838 837 837 836 836 836 836 835 835 835 835 835 835 835 834 833 833 832 831 830 829 828 827 826 825 824 823 823 822 821 820 819
848 848 848 848 848 848 848 847 847 846 846 846 845 845 845 845 845 845 845 845 844 844 844 843 843 843 842 842 841 841 840 840 839 839 838 838 837 837 837 836 836 836 835 835 835 835 835 835 835 834 834 834 833 833 832 830 829 828 827 826 825 824 823 823 822 821 820 819 818
847 847 847 848 848 848 847 847 846 846 846 845 845 844 844 844 844 844 844 844 843 843 843 843 842 842 841 841 840 840 839 839 838 838 838 837 837 836 836 836 835 835 834 834 834 834 834 834 834 834 834 833 833 832 831 830 828 828 827 826 824 823 823 822 821 820 819 818 817
845 846 846 846 847 847 846 846 846 845 845 844 844 844 843 843 843 843 843 843 843 843 842 842 842 841 841 840 840 839 839 838 838 838 837 836 836 836 835 835 835 834 833 833 833 833 833 833 834 833 833 833 832 831 830 829 828 827 826 825 823 823 821 820 820 819 818 817 816
844 845 845 845 845 845 845 845 845 844 844 843 843 843 843 843 843 843 842 842 842 842 842 841 841 840 840 839 839 838 838 838 837 837 836 836 835 835 835 834 834 833 833 833 833 833 833 833 833 833 833 833 832 831 830 829 828 826 825 824 823 822 820 819 818 818 817 816 815
843 844 844 844 844 844 844 844 844 843 843 843 843 843 842 842 842 842 842 841 841 841 841 840 840 839 839 838 838 838 837 836 836 836 835 835 835 834 834 833 833 833 833 832 832 832 832 833 833 833 833 832 831 830 829 828 827 826 824 823 822 821 819 818 818 817 816 815 814
843 843 843 843 843 843 843 843 843 843 842 842 842 842 842 841 841 841 841 840 840 840 840 839 839 838 838 838 837 837 836 835 835 835 834 834 834 833 833 833 832 832 832 831 831 831 832 832 832 832 832 831 831 829 828 827 826 825 823 822 821 820 818 817 816 815 814 814 813
842 842 842 842 843 843 842 842 842 842 842 841 841 841 841 841 840 840 840 840 839 839 839 838 838 837 837 837 836 835 835 834 834 834 833 833 833 833 833 832 832 832 831 830 830 830 831 831 830 830 830 830 830 829 828 826 825 824 823 821 820 819 817 816 815 814 813 813 812
840 841 841 841 841 841 841 841 841 841 841 840 840 840 840 840 839 839 839 839 838 838 837 837 836 836 836 835 835 834 833 833 833 833 833 833 833 832 832 832 832 831 830 829 829 829 830 829 829 829 829 829 829 828 827 825 824 823 821 820 819 818 816 815 814 813 812 812 811
839 839 839 840 840 840 840 840 840 840 840 840 839 839 839 839 839 838 838 838 837 837 836 836 835 835 835 834 833 833 833 832 832 832 832 832 832 832 832 831 831 830 829 828 828 828 829 829 828 828 828 828 828 827 826 824 823 822 820 819 818 817 815 814 813 812 812 811 811
838 838 838 838 839 839 839 839 839 839 839 839 839 839 838 838 838 838 837 837 836 835 835 834 834 834 834 833 833 832 832 831 831 831 831 831 831 831 831 831 831 830 828 827 827 828 828 828 828 828 827 827 826 826 825 823 822 821 819 818 817 816 814 813 813 812 811 811 810
837 837 837 837 838 838 838 838 838 838 838 838 838 838 838 838 837 837 836 835 835 834 834 834 833 833 833 832 832 831 831 830 830 830 830 830 830 830 830 830 830 829 828 826 827 827 827 827 827 827 826 826 825 824 824 823 821 820 819 817 816 815 814 813 812 812 811 810 809
835 836 836 836 836 837 837 837 837 837 838 838 838 838 837 837 836 835 835 834 834 833 833 833 833 832 832 831 831 830 830 830 830 830 830 830 830 830 830 829 829 829 828 826 826 827 827 826 826 826 825 825 824 823 823 822 820 819 818 816 815 814 813 813 812 811 811 810 809
834 834 834 835 835 835 835 836 836 836 837 837 837 836 836 835 834 834 833 833 833 833 832 832 832 831 830 830 830 830 829 829 829 829 829 829 829 829 829 829 828 827 826 825 826 826 826 826 825 825 824 824 823 822 821 821 819 818 817 816 814 814 813 812 811 811 810 809 809
833 833 833 833 833 834 834 834 835 835 835 835 835 835 834 833 833 833 833 832 832 832 832 831 831 830 829 829 829 829 829 829 829 829 829 829 829 828 828 828 828 826 824 825 825 825 825 825 824 824 823 823 822 821 820 820 818 817 816 815 814 813 813 812 811 810 809 809 808
832 832 832 832 833 833 833 833 833 834 834 834 833 833 833 832 832 832 831 831 831 831 831 830 830 829 829 828 828 828 828 829 829 828 828 828 828 828 828 828 828 825 823 824 824 824 824 824 824 823 823 822 821 820 819 818 818 816 815 814 813 813 812 811 810 809 809 808 807
830 831 831 831 832 832 832 832 833 833 833 832 832 831 831 831 831 830 830 830 830 830 830 829 828 828 828 828 828 828 828 828 828 828 828 828 828 828 827 827 827 825 823 823 824 824 824 823 823 823 822 821 820 819 819 818 817 816 815 814 813 812 811 810 809 808 808 807 806
829 829 830 830 831 831 831 831 831 831 831 831 830 830 830 829 829 829 829 829 829 829 828 828 828 827 827 827 827 827 827 827 827 827 827 827 827 827 827 826 827 825 823 823 823 823 823 823 823 822 821 820 819 819 818 817 816 815 814 813 812 811 810 809 808 808 807 806 805
828 828 828 829 830 830 830 830 830 830 829 829 829 829 828 828 828 828 828 828 828 828 827 827 826 826 825 825 826 826 826 826 826 826 826 826 826 826 826 826 826 825 824 823 823 823 822 822 822 821 820 819 819 818 817 816 815 814 813 812 811 810 809 808 808 807 806 805 804
827 827 828 828 828 828 829 829 829 828 828 828 828 828 827 827 827 827 827 827 827 826 826 826 825 825 824 825 825 825 825 825 825 825 825 825 825 825 825 825 825 825 825 823 822 822 822 821 821 820 820 819 818 818 817 816 815 814 813 812 811 810 809 808 807 806 805 804 804
826 826 827 827 827 827 827 827 827 827 827 827 826 826 826 826 826 826 826 826 826 826 825 825 824 824 824 824 824 824 824 824 824 824 824 824 824 824 824 824 824 824 824 822 821 821 821 821 820 819 819 818 818 817 816 815 814 813 812 811 810 809 808 807 806 805 804 803 803
825 825 826 826 826 826 826 826 826 825 825 825 825 825 825 825 825 825 825 825 825 825 824 824 823 823 823 823 823 823 823 823 823 823 823 823 823 823 823 823 823 823 823 822 821 820 820 820 819 819 818 818 817 817 816 815 814 813 812 811 810 809 808 807 806 805 804 803 802
825 825 825 825 825 825 825 825 824 824 824 824 824 824 824 824 824 824 824 824 824 823 823 823 823 822 823 823 823 823 823 823 823 823 823 823 822 822 822 822 822 823 822 822 820 820 819 819 819 818 817 817 816 816 815 814 813 812 811 810 810 809 808 806 805 804 803 802 801